Time,TemperatureF,DewpointF,PressureIn,WindDirection,WindDirectionDegrees,WindSpeedMPH,WindSpeedGustMPH,Humidity,HourlyPrecipIn,Conditions,Clouds,dailyrainin,SoftwareType,DateUTC
2013-05-14 00:03:00,41.0,28.0,-100.00,East,81,0.0,12.0,59,0.00,,,-99.99,,2013-05-14 04:03:00,
2013-05-14 00:13:00,41.0,30.0,-100.00,ENE,73,1.0,12.0,63,0.00,,,-99.99,,2013-05-14 04:13:00,
2013-05-14 00:23:00,41.0,28.0,-100.00,ENE,72,0.0,12.0,59,0.00,,,-99.99,,2013-05-14 04:23:00,
2013-05-14 00:32:00,42.0,28.0,-100.00,ENE,70,0.0,12.0,55,0.00,,,-99.99,,2013-05-14 04:32:00,
2013-05-14 00:43:00,45.0,32.0,-100.00,ENE,72,0.0,12.0,56,0.00,,,-99.99,,2013-05-14 04:43:00,
2013-05-14 00:53:00,43.0,28.0,-100.00,ENE,72,0.0,12.0,54,0.00,,,-99.99,,2013-05-14 04:53:00,
2013-05-14 01:02:00,42.0,28.0,-100.00,ENE,72,0.0,12.0,56,0.00,,,-99.99,,2013-05-14 05:02:00,
2013-05-14 01:12:00,41.0,27.0,-100.00,ENE,72,0.0,12.0,54,0.00,,,-99.99,,2013-05-14 05:12:00,
2013-05-14 01:22:00,43.0,28.0,-100.00,ENE,72,0.0,12.0,53,0.00,,,-99.99,,2013-05-14 05:22:00,
2013-05-14 01:32:00,47.0,32.0,-100.00,East,81,1.0,1.0,55,0.00,,,-99.99,,2013-05-14 05:32:00,
2013-05-14 01:42:00,42.0,28.0,-100.00,ENE,72,1.0,1.0,55,0.00,,,-99.99,,2013-05-14 05:42:00,
2013-05-14 01:52:00,42.0,32.0,-100.00,East,81,0.0,1.0,64,0.00,,,-99.99,,2013-05-14 05:52:00,
2013-05-14 02:01:00,43.0,28.0,-100.00,East,81,0.0,1.0,56,0.00,,,-99.99,,2013-05-14 06:01:00,
2013-05-14 02:13:00,41.0,28.0,-100.00,ENE,74,1.0,1.0,58,0.00,,,-99.99,,2013-05-14 06:13:00,
2013-05-14 02:22:00,42.0,30.0,-100.00,ENE,62,0.0,1.0,62,0.00,,,-99.99,,2013-05-14 06:22:00,
2013-05-14 02:32:00,40.0,30.0,-100.00,ENE,62,1.0,1.0,66,0.00,,,-99.99,,2013-05-14 06:32:00,
2013-05-14 02:42:00,39.0,30.0,-100.00,ENE,62,1.0,1.0,69,0.00,,,-99.99,,2013-05-14 06:42:00,
2013-05-14 02:52:00,39.0,32.0,-100.00,East,83,1.0,1.0,72,0.00,,,-99.99,,2013-05-14 06:52:00,
2013-05-14 03:02:00,40.0,30.0,-100.00,ENE,62,1.0,1.0,66,0.00,,,-99.99,,2013-05-14 07:02:00,
2013-05-14 03:11:00,39.0,30.0,-100.00,ENE,63,1.0,1.0,68,0.00,,,-99.99,,2013-05-14 07:11:00,
2013-05-14 03:21:00,39.0,30.0,-100.00,ENE,72,1.0,1.0,67,0.00,,,-99.99,,2013-05-14 07:21:00,
2013-05-14 03:32:00,41.0,28.0,-100.00,ENE,72,1.0,1.0,60,0.00,,,-99.99,,2013-05-14 07:32:00,
2013-05-14 03:42:00,42.0,32.0,-100.00,ENE,72,1.0,1.0,67,0.00,,,-99.99,,2013-05-14 07:42:00,
2013-05-14 03:52:00,42.0,32.0,-100.00,ENE,63,1.0,1.0,66,0.00,,,-99.99,,2013-05-14 07:52:00,
2013-05-14 04:02:00,42.0,32.0,-100.00,East,80,2.0,2.0,72,0.00,,,-99.99,,2013-05-14 08:02:00,
2013-05-14 04:11:00,39.0,34.0,-100.00,East,83,1.0,2.0,81,0.00,,,-99.99,,2013-05-14 08:11:00,
2013-05-14 04:21:00,41.0,32.0,-100.00,ENE,74,1.0,2.0,71,0.00,,,-99.99,,2013-05-14 08:21:00,
2013-05-14 04:32:00,40.0,32.0,-100.00,ENE,72,1.0,2.0,76,0.00,,,-99.99,,2013-05-14 08:32:00,
2013-05-14 04:42:00,41.0,32.0,-100.00,ENE,72,1.0,2.0,73,0.00,,,-99.99,,2013-05-14 08:42:00,
2013-05-14 04:52:00,41.0,34.0,-100.00,ENE,73,1.0,2.0,77,0.00,,,-99.99,,2013-05-14 08:52:00,
2013-05-14 05:02:00,41.0,32.0,-100.00,ENE,72,1.0,2.0,72,0.00,,,-99.99,,2013-05-14 09:02:00,
2013-05-14 05:11:00,41.0,30.0,-100.00,ENE,62,0.0,2.0,62,0.00,,,-99.99,,2013-05-14 09:11:00,
2013-05-14 05:22:00,42.0,32.0,-100.00,ENE,72,0.0,2.0,69,0.00,,,-99.99,,2013-05-14 09:22:00,
2013-05-14 05:32:00,43.0,32.0,-100.00,East,81,0.0,2.0,68,0.00,,,-99.99,,2013-05-14 09:32:00,
2013-05-14 05:44:00,44.0,32.0,-100.00,ENE,72,0.0,2.0,60,0.00,,,-99.99,,2013-05-14 09:44:00,
2013-05-14 05:54:00,42.0,28.0,-100.00,ENE,72,1.0,2.0,54,0.00,,,-99.99,,2013-05-14 09:54:00,
2013-05-14 06:05:00,43.0,28.0,-100.00,ENE,72,1.0,2.0,54,0.00,,,-99.99,,2013-05-14 10:05:00,
2013-05-14 06:14:00,44.0,28.0,-100.00,ENE,72,0.0,2.0,54,0.00,,,-99.99,,2013-05-14 10:14:00,
2013-05-14 06:25:00,46.0,30.0,-100.00,ENE,72,0.0,2.0,53,0.00,,,-99.99,,2013-05-14 10:25:00,
2013-05-14 06:33:00,44.0,28.0,-100.00,ENE,72,0.0,2.0,51,0.00,,,-99.99,,2013-05-14 10:33:00,
2013-05-14 06:42:00,44.0,28.0,-100.00,ENE,72,0.0,2.0,51,0.00,,,-99.99,,2013-05-14 10:42:00,
2013-05-14 06:52:00,44.0,28.0,-100.00,ENE,72,0.0,2.0,51,0.00,,,-99.99,,2013-05-14 10:52:00,
2013-05-14 07:03:00,43.0,28.0,-100.00,ENE,62,1.0,2.0,54,0.00,,,-99.99,,2013-05-14 11:03:00,
2013-05-14 07:11:00,45.0,32.0,-100.00,East,81,0.0,2.0,58,0.00,,,-99.99,,2013-05-14 11:11:00,
2013-05-14 07:22:00,43.0,28.0,-100.00,East,81,1.0,2.0,56,0.00,,,-99.99,,2013-05-14 11:22:00,
2013-05-14 07:32:00,45.0,32.0,-100.00,ENE,62,0.0,2.0,64,0.00,,,-99.99,,2013-05-14 11:32:00,
2013-05-14 07:43:00,45.0,32.0,-100.00,ENE,67,1.0,2.0,60,0.00,,,-99.99,,2013-05-14 11:43:00,
2013-05-14 07:52:00,46.0,32.0,-100.00,ENE,70,0.0,2.0,62,0.00,,,-99.99,,2013-05-14 11:52:00,
2013-05-14 08:03:00,44.0,30.0,-100.00,ENE,72,0.0,2.0,56,0.00,,,-99.99,,2013-05-14 12:03:00,
2013-05-14 08:12:00,44.0,30.0,-100.00,ENE,72,0.0,2.0,54,0.00,,,-99.99,,2013-05-14 12:12:00,
2013-05-14 08:21:00,45.0,30.0,-100.00,ENE,72,0.0,2.0,55,0.00,,,-99.99,,2013-05-14 12:21:00,
2013-05-14 08:32:00,45.0,28.0,-100.00,East,81,0.0,2.0,51,0.00,,,-99.99,,2013-05-14 12:32:00,
2013-05-14 08:42:00,48.0,32.0,-100.00,East,83,0.0,2.0,54,0.00,,,-99.99,,2013-05-14 12:42:00,
2013-05-14 08:52:00,45.0,30.0,-100.00,ENE,72,0.0,2.0,53,0.00,,,-99.99,,2013-05-14 12:52:00,
2013-05-14 09:01:00,44.0,30.0,-100.00,ENE,62,1.0,2.0,56,0.00,,,-99.99,,2013-05-14 13:01:00,
2013-05-14 09:11:00,45.0,30.0,-100.00,ENE,70,1.0,2.0,56,0.00,,,-99.99,,2013-05-14 13:11:00,
2013-05-14 09:22:00,44.0,32.0,-100.00,ENE,62,0.0,2.0,58,0.00,,,-99.99,,2013-05-14 13:22:00,
2013-05-14 09:32:00,45.0,32.0,-100.00,ENE,72,0.0,2.0,56,0.00,,,-99.99,,2013-05-14 13:32:00,
2013-05-14 09:42:00,47.0,30.0,-100.00,ENE,70,1.0,2.0,51,0.00,,,-99.99,,2013-05-14 13:42:00,
2013-05-14 09:52:00,49.0,30.0,-100.00,ENE,62,0.0,2.0,46,0.00,,,-99.99,,2013-05-14 13:52:00,
2013-05-14 10:01:00,50.0,30.0,-100.00,ENE,70,0.0,2.0,46,0.00,,,-99.99,,2013-05-14 14:01:00,
2013-05-14 10:11:00,52.0,32.0,-100.00,ENE,62,1.0,2.0,45,0.00,,,-99.99,,2013-05-14 14:11:00,
2013-05-14 10:22:00,52.0,32.0,-100.00,ENE,77,2.0,2.0,46,0.00,,,-99.99,,2013-05-14 14:22:00,
2013-05-14 10:32:00,52.0,32.0,-100.00,ENE,70,3.0,4.0,44,0.00,,,-99.99,,2013-05-14 14:32:00,
2013-05-14 10:42:00,53.0,32.0,-100.00,ENE,62,3.0,4.0,47,0.00,,,-99.99,,2013-05-14 14:42:00,
2013-05-14 10:52:00,53.0,32.0,-100.00,ENE,70,2.0,4.0,46,0.00,,,-99.99,,2013-05-14 14:52:00,
2013-05-14 11:01:00,54.0,32.0,-100.00,ENE,72,1.0,4.0,45,0.00,,,-99.99,,2013-05-14 15:01:00,
2013-05-14 11:12:00,54.0,32.0,-100.00,ENE,70,3.0,6.0,41,0.00,,,-99.99,,2013-05-14 15:12:00,
2013-05-14 11:22:00,55.0,30.0,-100.00,East,81,3.0,6.0,38,0.00,,,-99.99,,2013-05-14 15:22:00,
2013-05-14 11:33:00,56.0,30.0,-100.00,ENE,62,2.0,6.0,36,0.00,,,-99.99,,2013-05-14 15:33:00,
2013-05-14 11:43:00,59.0,32.0,-100.00,ENE,60,2.0,6.0,38,0.00,,,-99.99,,2013-05-14 15:43:00,
2013-05-14 11:53:00,59.0,32.0,-100.00,East,81,2.0,6.0,38,0.00,,,-99.99,,2013-05-14 15:53:00,
2013-05-14 12:02:00,59.0,30.0,-100.00,East,81,4.0,6.0,31,0.00,,,-99.99,,2013-05-14 16:02:00,
2013-05-14 12:12:00,61.0,32.0,-100.00,ENE,64,4.0,6.0,34,0.00,,,-99.99,,2013-05-14 16:12:00,
2013-05-14 12:23:00,58.0,28.0,-100.00,East,79,6.0,10.0,32,0.00,,,-99.99,,2013-05-14 16:23:00,
2013-05-14 12:33:00,61.0,30.0,-100.00,ENE,62,4.0,10.0,31,0.00,,,-99.99,,2013-05-14 16:33:00,
2013-05-14 12:44:00,61.0,32.0,-100.00,East,80,6.0,10.0,32,0.00,,,-99.99,,2013-05-14 16:44:00,
2013-05-14 12:54:00,62.0,30.0,-100.00,East,81,6.0,10.0,29,0.00,,,-99.99,,2013-05-14 16:54:00,
2013-05-14 13:03:00,62.0,32.0,-100.00,ENE,70,5.0,10.0,31,0.00,,,-99.99,,2013-05-14 17:03:00,
2013-05-14 13:13:00,62.0,32.0,-100.00,ENE,70,2.0,10.0,33,0.00,,,-99.99,,2013-05-14 17:13:00,
2013-05-14 13:24:00,64.0,32.0,-100.00,ENE,70,3.0,10.0,29,0.00,,,-99.99,,2013-05-14 17:24:00,
2013-05-14 13:33:00,65.0,32.0,-100.00,East,81,4.0,10.0,31,0.00,,,-99.99,,2013-05-14 17:33:00,
2013-05-14 13:43:00,65.0,30.0,-100.00,ENE,62,2.0,10.0,27,0.00,,,-99.99,,2013-05-14 17:43:00,
2013-05-14 13:52:00,64.0,32.0,-100.00,East,79,4.0,10.0,29,0.00,,,-99.99,,2013-05-14 17:52:00,
2013-05-14 14:02:00,65.0,32.0,-100.00,ENE,74,4.0,10.0,29,0.00,,,-99.99,,2013-05-14 18:02:00,
2013-05-14 14:12:00,66.0,34.0,-100.00,East,81,5.0,10.0,32,0.00,,,-99.99,,2013-05-14 18:12:00,
2013-05-14 14:22:00,67.0,32.0,-100.00,ENE,63,5.0,10.0,29,0.00,,,-99.99,,2013-05-14 18:22:00,
2013-05-14 14:32:00,67.0,34.0,-100.00,ENE,70,6.0,10.0,31,0.00,,,-99.99,,2013-05-14 18:32:00,
2013-05-14 14:42:00,69.0,37.0,-100.00,East,83,4.0,10.0,33,0.00,,,-99.99,,2013-05-14 18:42:00,
2013-05-14 14:52:00,67.0,36.0,-100.00,ENE,72,3.0,10.0,32,0.00,,,-99.99,,2013-05-14 18:52:00,
2013-05-14 15:01:00,69.0,37.0,-100.00,East,80,5.0,10.0,32,0.00,,,-99.99,,2013-05-14 19:01:00,
2013-05-14 15:12:00,70.0,37.0,-100.00,ENE,63,2.0,10.0,32,0.00,,,-99.99,,2013-05-14 19:12:00,
2013-05-14 15:22:00,70.0,37.0,-100.00,ENE,63,2.0,10.0,32,0.00,,,-99.99,,2013-05-14 19:22:00,
2013-05-14 15:32:00,67.0,36.0,-100.00,ENE,70,4.0,10.0,32,0.00,,,-99.99,,2013-05-14 19:32:00,
2013-05-14 15:42:00,68.0,37.0,-100.00,ENE,69,5.0,10.0,34,0.00,,,-99.99,,2013-05-14 19:42:00,
2013-05-14 15:53:00,68.0,37.0,-100.00,ENE,69,4.0,10.0,33,0.00,,,-99.99,,2013-05-14 19:53:00,
2013-05-14 16:02:00,68.0,37.0,-100.00,ENE,72,2.0,10.0,33,0.00,,,-99.99,,2013-05-14 20:02:00,
2013-05-14 16:11:00,69.0,39.0,-100.00,East,81,3.0,10.0,34,0.00,,,-99.99,,2013-05-14 20:11:00,
2013-05-14 16:23:00,69.0,37.0,-100.00,ENE,66,2.0,10.0,33,0.00,,,-99.99,,2013-05-14 20:23:00,
2013-05-14 16:33:00,69.0,39.0,-100.00,ENE,60,2.0,10.0,34,0.00,,,-99.99,,2013-05-14 20:33:00,
2013-05-14 16:44:00,70.0,39.0,-100.00,ENE,70,3.0,10.0,33,0.00,,,-99.99,,2013-05-14 20:44:00,
2013-05-14 16:52:00,71.0,39.0,-100.00,ENE,62,4.0,10.0,33,0.00,,,-99.99,,2013-05-14 20:52:00,
2013-05-14 17:03:00,73.0,41.0,-100.00,ENE,70,2.0,10.0,33,0.00,,,-99.99,,2013-05-14 21:03:00,
2013-05-14 17:12:00,70.0,39.0,-100.00,ENE,72,2.0,10.0,33,0.00,,,-99.99,,2013-05-14 21:12:00,
2013-05-14 17:23:00,71.0,39.0,-100.00,East,81,4.0,10.0,33,0.00,,,-99.99,,2013-05-14 21:23:00,
2013-05-14 17:33:00,71.0,41.0,-100.00,ENE,62,2.0,10.0,34,0.00,,,-99.99,,2013-05-14 21:33:00,
2013-05-14 17:43:00,71.0,41.0,-100.00,ENE,64,4.0,10.0,34,0.00,,,-99.99,,2013-05-14 21:43:00,
2013-05-14 17:52:00,73.0,41.0,-100.00,ENE,70,2.0,10.0,32,0.00,,,-99.99,,2013-05-14 21:52:00,
2013-05-14 18:03:00,73.0,41.0,-100.00,East,80,2.0,10.0,33,0.00,,,-99.99,,2013-05-14 22:03:00,
2013-05-14 18:13:00,72.0,43.0,-100.00,East,81,2.0,10.0,37,0.00,,,-99.99,,2013-05-14 22:13:00,
2013-05-14 18:24:00,73.0,45.0,-100.00,ENE,72,3.0,10.0,37,0.00,,,-99.99,,2013-05-14 22:24:00,
2013-05-14 18:34:00,73.0,41.0,-100.00,East,81,2.0,10.0,34,0.00,,,-99.99,,2013-05-14 22:34:00,
2013-05-14 18:45:00,73.0,43.0,-100.00,ENE,70,4.0,10.0,34,0.00,,,-99.99,,2013-05-14 22:45:00,
2013-05-14 18:54:00,73.0,43.0,-100.00,ENE,70,4.0,10.0,34,0.00,,,-99.99,,2013-05-14 22:54:00,
2013-05-14 19:03:00,74.0,45.0,-100.00,ENE,70,2.0,10.0,37,0.00,,,-99.99,,2013-05-14 23:03:00,
2013-05-14 19:12:00,74.0,43.0,-100.00,ENE,70,2.0,10.0,34,0.00,,,-99.99,,2013-05-14 23:12:00,
2013-05-14 19:22:00,74.0,43.0,-100.00,ENE,70,2.0,10.0,34,0.00,,,-99.99,,2013-05-14 23:22:00,
2013-05-14 19:32:00,74.0,43.0,-100.00,ENE,70,2.0,10.0,34,0.00,,,-99.99,,2013-05-14 23:32:00,
2013-05-14 19:44:00,74.0,46.0,-100.00,ENE,76,1.0,10.0,38,0.00,,,-99.99,,2013-05-14 23:44:00,
2013-05-14 19:53:00,73.0,45.0,-100.00,ENE,69,1.0,10.0,37,0.00,,,-99.99,,2013-05-14 23:53:00,
2013-05-14 20:02:00,73.0,48.0,-100.00,ENE,72,1.0,10.0,41,0.00,,,-99.99,,2013-05-15 00:02:00,
2013-05-14 20:11:00,72.0,45.0,-100.00,East,81,2.0,10.0,40,0.00,,,-99.99,,2013-05-15 00:11:00,
2013-05-14 20:21:00,73.0,46.0,-100.00,East,81,1.0,10.0,41,0.00,,,-99.99,,2013-05-15 00:21:00,
2013-05-14 20:32:00,71.0,46.0,-100.00,ENE,70,0.0,10.0,42,0.00,,,-99.99,,2013-05-15 00:32:00,
2013-05-14 20:42:00,71.0,48.0,-100.00,ENE,70,0.0,10.0,45,0.00,,,-99.99,,2013-05-15 00:42:00,
2013-05-14 20:51:00,70.0,46.0,-100.00,ENE,72,0.0,10.0,46,0.00,,,-99.99,,2013-05-15 00:51:00,
2013-05-14 21:01:00,69.0,48.0,-100.00,ENE,70,0.0,10.0,49,0.00,,,-99.99,,2013-05-15 01:01:00,
2013-05-14 21:11:00,69.0,48.0,-100.00,ENE,72,0.0,10.0,50,0.00,,,-99.99,,2013-05-15 01:11:00,
2013-05-14 21:22:00,68.0,48.0,-100.00,ENE,70,0.0,10.0,50,0.00,,,-99.99,,2013-05-15 01:22:00,
2013-05-14 21:32:00,67.0,46.0,-100.00,ENE,72,0.0,10.0,50,0.00,,,-99.99,,2013-05-15 01:32:00,
2013-05-14 21:42:00,67.0,46.0,-100.00,ENE,70,0.0,10.0,50,0.00,,,-99.99,,2013-05-15 01:42:00,
2013-05-14 21:52:00,68.0,48.0,-100.00,ENE,72,0.0,10.0,50,0.00,,,-99.99,,2013-05-15 01:52:00,
2013-05-14 22:02:00,69.0,46.0,-100.00,East,81,0.0,10.0,47,0.00,,,-99.99,,2013-05-15 02:02:00,
2013-05-14 22:11:00,68.0,48.0,-100.00,ENE,72,0.0,10.0,50,0.00,,,-99.99,,2013-05-15 02:11:00,
2013-05-14 22:22:00,68.0,48.0,-100.00,ENE,72,0.0,10.0,51,0.00,,,-99.99,,2013-05-15 02:22:00,
2013-05-14 22:32:00,67.0,48.0,-100.00,East,81,0.0,10.0,53,0.00,,,-99.99,,2013-05-15 02:32:00,
2013-05-14 22:42:00,68.0,48.0,-100.00,ENE,72,0.0,10.0,53,0.00,,,-99.99,,2013-05-15 02:42:00,
2013-05-14 22:52:00,67.0,48.0,-100.00,ENE,72,0.0,10.0,53,0.00,,,-99.99,,2013-05-15 02:52:00,
2013-05-14 23:01:00,67.0,48.0,-100.00,ENE,72,0.0,10.0,53,0.00,,,-99.99,,2013-05-15 03:01:00,
2013-05-14 23:13:00,68.0,50.0,-100.00,ENE,72,0.0,10.0,54,0.00,,,-99.99,,2013-05-15 03:13:00,
2013-05-14 23:22:00,67.0,50.0,-100.00,ENE,72,0.0,10.0,55,0.00,,,-99.99,,2013-05-15 03:22:00,
2013-05-14 23:33:00,67.0,50.0,-100.00,ENE,70,1.0,10.0,55,0.00,,,-99.99,,2013-05-15 03:33:00,
2013-05-14 23:44:00,66.0,50.0,-100.00,East,83,1.0,10.0,56,0.00,,,-99.99,,2013-05-15 03:44:00,
2013-05-14 23:54:00,67.0,50.0,-100.00,ENE,72,2.0,10.0,56,0.00,,,-99.99,,2013-05-15 03:54:00,